Probability
19 42 77 68 65 65 65 61 58 61 61 65 58 61 61 61 58 61 55 58 58 61 45 45 52 45 42 42 45 42 35 32 29 29 35 39 32 26 19 13 6 3 19
19 55 74 71 65 61 65 65 61 61 58 61 61 55 58 58 55 61 61 55 61 55 48 42 52 45 35 35 35 29 32 29 16 13 13 10 26 26 13 13 16 6 16
26 52 61 65 61 61 58 58 58 61 61 61 55 58 55 55 61 61 61 61 58 58 48 39 35 32 26 32 29 26 29 19 16 10 0 0 10 19 16 13 16 13 10
35 48 58 65 65 58 55 55 61 58 55 52 52 55 52 48 52 55 58 58 55 52 48 42 42 29 26 29 29 26 13 10 3 0 0 0 0 19 26 13 19 13 10
35 45 58 65 65 61 58 58 58 58 55 52 55 52 52 45 48 48 45 52 52 48 39 39 39 32 26 26 23 16 10 3 0 0 0 0 0 19 16 16 19 16 13
39 39 55 61 61 58 58 58 58 55 52 58 52 52 48 35 35 42 45 45 48 42 42 39 29 29 26 23 23 13 10 0 0 0 0 0 0 19 19 19 6 3 3
39 35 48 61 61 55 58 58 55 55 55 52 48 42 39 32 35 42 45 45 42 39 32 35 19 13 19 19 13 6 6 0 0 0 0 0 0 19 19 16 13 6 3
39 35 45 58 52 58 55 55 52 52 48 45 52 42 42 39 35 35 35 39 39 35 35 23 16 13 10 13 6 3 0 0 0 0 0 0 6 19 23 13 16 10 3
35 35 39 42 45 45 48 52 48 45 45 45 45 39 39 39 39 39 35 32 35 29 29 23 16 10 10 3 3 0 0 0 0 0 0 0 6 19 13 13 13 6 6
29 32 29 29 32 35 35 39 42 42 42 35 32 29 29 29 29 29 26 29 29 26 23 16 19 13 10 0 0 0 0 0 0 0 0 0 10 10 10 10 6 0 0
26 26 23 23 23 26 26 26 29 29 26 23 13 13 10 13 13 19 16 16 23 19 13 16 13 6 0 0 0 0 0 0 0 0 0 0 13 6 6 6 3 0 0
23 13 16 16 13 16 16 13 13 16 10 10 6 6 6 3 3 6 3 0 6 3 6 6 3 0 0 0 0 0 0 0 0 0 0 3 6 10 10 3 3 0 0
10 10 10 13 13 6 13 10 10 6 3 6 3 6 3 0 0 0 0 0 0 0 0 3 3 0 0 0 0 0 0 0 0 0 0 0 3 3 10 3 3 3 3
10 10 10 10 6 3 3 10 6 6 6 3 3 3 3 0 0 0 0 0 0 0 0 0 0 0 0 0 0 0 0 0 0 0 0 0 0 3 3 3 3 3 3
10 10 10 10 6 3 3 3 6 6 6 3 3 3 0 0 0 0 0 0 0 0 0 0 0 0 0 0 0 0 0 0 0 0 0 0 0 3 3 3 3 3 3
6 10 10 10 3 3 3 3 3 6 6 6 3 3 0 0 0 0 0 0 0 0 0 0 0 0 0 0 0 0 0 0 0 0 0 0 0 0 3 3 3 3 3
3 6 10 10 6 3 3 3 3 6 6 6 3 3 0 3 0 0 0 0 0 0 0 0 0 0 0 0 0 0 0 0 0 0 0 0 0 0 0 3 3 3 3
3 3 6 10 6 6 3 3 3 3 6 6 3 3 0 0 0 0 0 0 0 0 0 0 0 0 0 0 0 0 0 0 0 0 0 0 0 0 0 0 3 3 3
0 0 0 6 6 6 3 3 3 3 6 3 3 3 0 0 0 0 0 0 0 0 0 0 0 0 0 0 0 0 0 0 0 0 0 0 0 0 0 0 0 0 0
0 0 0 0 3 0 0 0 0 0 3 3 3 3 0 0 0 0 0 0 0 0 0 0 0 0 0 0 0 0 0 0 0 0 0 0 0 0 0 0 0 0 0
0 0 0 0 0 0 0 0 0 0 0 3 3 3 0 0 0 0 0 0 0 0 0 0 0 0 0 0 0 0 0 0 0 0 0 0 0 0 0 0 0 0 0
0 0 0 0 0 0 0 0 0 0 0 3 3 0 3 0 0 0 0 0 0 0 0 0 0 0 0 0 0 0 0 0 0 0 0 0 0 0 0 0 0 0 0
0 0 0 0 0 0 0 0 0 0 0 3 3 3 3 3 0 0 0 0 0 0 0 0 0 0 0 0 0 0 0 0 0 0 0 0 0 0 0 0 0 0 0
0 0 0 0 0 0 0 0 0 0 0 0 0 0 3 3 0 0 0 0 0 0 0 0 0 0 0 0 0 0 0 0 0 0 0 0 0 0 0 0 0 0 0
0 0 0 0 0 0 0 0 0 0 0 0 0 0 3 0 0 0 0 0 0 0 0 0 0 0 0 0 0 0 0 0 0 0 0 0 0 0 0 0 0 0 0
0 0 0 0 0 0 0 0 0 0 0 0 0 0 3 0 0 0 0 0 0 0 0 0 0 0 0 0 0 0 0 0 0 0 0 0 0 0 0 0 0 0 0
Height
5854 5855 5856 5857 5858 5859 5860 5861 5862 5863 5864 5865 5866 5867 5868 5868 5869 5869 5869 5870 5870 5870 5870 5870 5871 5871 5871 5871 5871 5871 5871 5871 5871 5870 5870 5870 5869 5869 5869 5868 5868 5867 5867
5852 5853 5854 5855 5856 5857 5858 5859 5861 5862 5863 5864 5865 5866 5867 5868 5868 5868 5869 5869 5869 5870 5870 5870 5870 5871 5871 5871 5871 5871 5871 5871 5871 5871 5870 5870 5870 5870 5869 5869 5868 5868 5867
5849 5850 5852 5853 5854 5855 5856 5858 5859 5860 5861 5863 5864 5865 5866 5866 5867 5867 5868 5868 5869 5869 5869 5870 5870 5870 5871 5871 5871 5871 5871 5871 5871 5871 5871 5871 5870 5870 5870 5869 5869 5868 5868
5846 5848 5849 5850 5852 5853 5854 5856 5857 5858 5860 5861 5862 5863 5864 5865 5866 5866 5867 5867 5868 5868 5869 5869 5869 5870 5870 5871 5871 5871 5871 5871 5871 5871 5871 5871 5870 5870 5870 5869 5869 5869 5868
5843 5845 5846 5847 5849 5850 5852 5853 5855 5856 5858 5859 5860 5862 5863 5863 5864 5865 5865 5866 5866 5867 5867 5868 5869 5869 5869 5870 5870 5870 5871 5871 5871 5871 5871 5871 5870 5870 5870 5870 5869 5869 5868
5840 5841 5843 5844 5846 5847 5849 5850 5852 5854 5855 5857 5858 5860 5861 5862 5863 5863 5864 5864 5865 5866 5866 5867 5868 5868 5869 5869 5869 5870 5870 5870 5870 5870 5870 5870 5870 5870 5869 5869 5869 5869 5868
5835 5837 5839 5841 5842 5844 5846 5847 5849 5851 5852 5854 5856 5857 5858 5859 5860 5861 5862 5863 5864 5864 5865 5866 5866 5867 5867 5868 5868 5869 5869 5869 5869 5870 5870 5869 5869 5869 5869 5869 5869 5868 5868
5830 5832 5834 5836 5838 5840 5842 5844 5845 5847 5849 5851 5853 5854 5856 5857 5858 5859 5860 5861 5862 5862 5863 5864 5865 5866 5866 5867 5867 5868 5868 5868 5868 5869 5869 5869 5869 5868 5868 5868 5868 5867 5867
5824 5827 5829 5831 5833 5835 5837 5839 5841 5843 5845 5847 5849 5851 5852 5854 5855 5857 5858 5859 5860 5860 5861 5862 5863 5864 5864 5865 5866 5866 5866 5867 5867 5867 5867 5867 5868 5867 5867 5867 5867 5867 5866
5818 5821 5823 5826 5828 5830 5833 5835 5837 5839 5841 5843 5845 5847 5849 5850 5852 5853 5855 5856 5857 5858 5859 5860 5861 5862 5863 5863 5864 5865 5865 5865 5865 5866 5866 5866 5866 5866 5866 5866 5866 5865 5865
5812 5814 5817 5820 5822 5825 5827 5830 5832 5834 5836 5839 5841 5843 5845 5846 5848 5850 5851 5853 5854 5855 5856 5857 5858 5859 5860 5861 5862 5863 5863 5863 5864 5864 5864 5864 5864 5864 5864 5864 5864 5864 5863
5805 5808 5810 5813 5816 5819 5821 5824 5827 5829 5831 5834 5836 5838 5840 5842 5844 5846 5848 5849 5851 5852 5853 5854 5855 5857 5858 5859 5860 5860 5861 5861 5862 5862 5862 5862 5863 5863 5863 5862 5862 5862 5862
5797 5800 5803 5806 5809 5812 5815 5818 5821 5823 5826 5828 5831 5833 5835 5837 5839 5842 5844 5845 5847 5848 5850 5851 5852 5854 5855 5856 5857 5858 5858 5859 5859 5859 5860 5860 5860 5861 5861 5860 5860 5860 5859
5788 5791 5795 5798 5801 5805 5808 5811 5814 5817 5820 5822 5825 5828 5830 5832 5835 5837 5839 5841 5843 5845 5846 5848 5849 5851 5852 5853 5854 5855 5856 5856 5857 5857 5857 5858 5858 5858 5858 5858 5858 5858 5857
5778 5782 5785 5789 5792 5796 5800 5803 5806 5810 5813 5816 5818 5822 5824 5827 5829 5832 5834 5836 5838 5840 5842 5844 5845 5847 5848 5850 5851 5852 5853 5853 5854 5854 5855 5855 5855 5856 5856 5856 5855 5855 5855
5767 5771 5775 5779 5783 5787 5791 5794 5798 5802 5805 5809 5812 5815 5818 5821 5823 5826 5828 5831 5833 5836 5837 5839 5841 5843 5844 5846 5847 5848 5849 5850 5851 5851 5852 5852 5853 5853 5853 5853 5853 5852 5852
5755 5760 5765 5769 5773 5777 5781 5786 5789 5793 5797 5801 5805 5808 5811 5814 5817 5820 5822 5825 5828 5830 5832 5834 5836 5838 5840 5842 5843 5844 5845 5847 5847 5848 5849 5849 5849 5850 5850 5850 5850 5849 5849
5744 5749 5754 5759 5764 5768 5772 5777 5781 5784 5788 5793 5797 5800 5804 5807 5810 5813 5816 5819 5821 5824 5827 5829 5831 5834 5835 5837 5839 5840 5841 5843 5844 5844 5845 5846 5846 5846 5846 5846 5846 5846 5846
5733 5738 5744 5749 5754 5759 5763 5768 5772 5775 5779 5784 5788 5792 5796 5799 5802 5805 5808 5812 5815 5818 5821 5823 5826 5828 5830 5832 5834 5835 5837 5838 5839 5840 5841 5842 5842 5842 5842 5843 5843 5842 5842
5721 5727 5732 5738 5743 5748 5753 5758 5763 5766 5770 5775 5779 5784 5788 5792 5794 5797 5801 5804 5808 5811 5814 5817 5820 5822 5825 5827 5829 5830 5832 5833 5835 5835 5836 5837 5838 5838 5838 5838 5838 5838 5838
5710 5716 5721 5726 5732 5737 5743 5748 5753 5757 5761 5766 5770 5775 5779 5783 5786 5789 5793 5796 5800 5804 5807 5811 5814 5816 5819 5821 5823 5825 5827 5828 5829 5830 5831 5832 5833 5833 5833 5834 5834 5834 5833
5697 5704 5710 5715 5720 5726 5732 5738 5743 5748 5752 5756 5761 5766 5770 5774 5778 5781 5784 5788 5792 5796 5800 5803 5807 5810 5812 5815 5817 5819 5821 5823 5824 5825 5826 5827 5827 5828 5828 5828 5829 5828 5828
5685 5692 5698 5704 5710 5714 5720 5727 5732 5737 5741 5746 5752 5757 5761 5766 5770 5773 5776 5780 5784 5788 5792 5796 5800 5803 5806 5808 5811 5813 5815 5817 5818 5820 5820 5821 5822 5822 5822 5823 5823 5823 5822
5674 5680 5686 5693 5698 5704 5709 5716 5721 5727 5732 5737 5742 5747 5752 5756 5761 5765 5768 5772 5776 5781 5785 5788 5792 5795 5798 5801 5804 5806 5809 5810 5812 5814 5815 5815 5816 5816 5816 5817 5817 5816 5816
5662 5668 5674 5680 5687 5693 5698 5705 5711 5716 5722 5727 5732 5737 5742 5747 5752 5756 5760 5764 5768 5773 5777 5780 5784 5788 5791 5794 5796 5799 5801 5803 5805 5807 5808 5809 5809 5809 5810 5810 5810 5810 5809
5649 5656 5663 5669 5675 5682 5688 5694 5700 5706 5712 5717 5722 5727 5733 5738 5743 5747 5752 5756 5760 5764 5768 5772 5776 5779 5783 5786 5788 5791 5793 5795 5797 5799 5800 5801 5802 5802 5802 5802 5802 5802 5802
Wind_Speed
13 13 12 12 12 11 11 11 11 10 10 10 10 9 8 8 7 7 6 6 5 5 4 4 4 3 3 2 2 1 1 2 2 3 3 3 3 3 4 4 5 5 5
15 14 14 13 13 13 13 12 12 12 11 11 11 10 10 9 8 8 7 7 6 6 6 5 5 4 4 3 3 2 2 2 2 2 2 2 2 2 3 3 4 4 4
17 16 15 14 14 14 14 14 13 13 13 12 12 12 11 11 10 9 8 8 8 7 7 6 6 5 4 4 4 3 2 2 1 1 1 1 1 1 2 2 3 3 3
18 18 17 16 16 16 16 15 15 15 14 14 13 13 13 12 11 10 10 9 9 8 8 7 7 6 5 5 4 4 3 3 2 1 1 0 1 1 1 1 2 2 3
19 20 19 18 18 17 17 17 17 16 16 15 15 14 14 13 12 11 11 10 10 9 9 8 7 7 6 6 5 5 5 4 3 3 2 2 1 0 0 0 1 2 2
21 21 21 20 19 19 19 19 19 18 17 17 16 15 15 14 14 13 12 11 11 10 10 9 9 8 8 7 7 6 6 5 4 3 3 3 2 2 2 2 2 2 3
24 23 23 22 22 21 20 20 20 20 19 19 17 17 16 15 15 14 13 13 12 12 11 10 10 9 8 8 8 7 7 6 6 5 4 4 4 3 3 3 3 3 3
26 25 25 24 24 23 22 22 22 21 21 21 20 19 17 17 16 16 15 14 13 12 12 11 11 10 10 9 8 8 8 7 7 6 6 5 5 4 4 4 4 4 4
28 27 27 26 26 25 24 24 23 23 23 22 22 21 20 18 17 17 16 15 15 14 13 13 12 11 10 10 9 9 8 8 8 7 6 6 6 6 6 6 5 5 5
31 30 29 28 28 27 27 26 25 24 24 23 23 22 22 21 19 18 17 16 16 16 15 14 13 13 12 11 10 9 9 9 9 8 8 7 7 7 7 7 7 7 7
33 32 31 30 30 29 28 28 27 26 25 25 24 24 23 22 21 20 19 18 17 17 16 16 15 14 13 12 12 11 11 11 10 10 9 9 8 8 8 8 8 8 8
35 34 34 32 32 31 30 29 29 28 27 27 26 25 25 24 23 22 21 20 19 18 18 17 16 15 15 14 13 12 12 12 12 11 10 10 9 9 8 8 8 8 9
38 37 36 35 34 33 32 31 31 30 29 29 28 26 26 25 25 24 23 22 21 20 19 19 18 17 16 15 14 14 13 12 13 12 12 11 11 10 10 9 9 9 10
40 39 39 38 37 36 34 34 33 32 31 31 30 29 28 26 26 25 24 23 23 22 21 20 19 18 17 16 16 15 14 13 13 13 12 12 12 11 11 10 10 10 11
42 41 41 40 39 38 37 36 35 34 33 32 31 30 30 28 28 27 26 25 24 23 22 21 20 19 18 18 17 16 15 15 14 13 13 12 12 12 12 12 11 11 11
44 44 43 42 41 40 39 37 37 36 35 34 33 32 31 30 29 29 29 27 26 25 24 23 22 21 20 20 19 18 17 16 15 15 14 13 13 13 13 13 13 13 13
46 45 44 43 43 42 40 39 38 37 36 36 35 34 33 32 31 31 30 29 28 27 26 25 24 23 22 21 20 19 18 17 17 16 15 15 14 14 14 14 14 14 14
46 46 45 45 44 43 42 40 39 38 38 37 37 36 35 34 33 33 32 31 30 29 28 27 26 25 24 23 22 21 20 19 18 18 17 16 16 16 15 15 15 15 15
47 47 47 46 46 45 43 42 41 40 40 39 38 37 36 35 34 34 34 33 32 30 29 28 28 26 25 25 23 23 22 21 20 19 19 18 18 17 17 17 16 16 17
48 47 47 47 47 46 45 44 43 41 41 40 39 38 37 36 35 35 35 34 33 32 31 30 29 28 27 26 25 24 24 22 22 21 21 20 20 19 19 18 18 18 18
50 48 47 48 48 48 47 46 44 43 41 41 41 40 39 37 36 36 36 35 34 33 33 32 31 30 29 28 27 26 25 25 23 23 23 22 21 21 21 20 20 20 20
51 51 49 48 48 48 48 47 45 45 43 42 41 41 39 38 37 37 36 36 35 35 34 33 32 31 31 30 29 28 27 26 25 24 24 24 23 23 22 22 23 23 23
51 51 51 50 49 48 49 49 48 46 45 44 43 42 40 39 38 37 36 36 36 36 36 35 34 33 32 31 30 29 28 27 26 26 26 25 25 25 25 25 25 25 25
51 51 51 51 50 49 49 49 48 48 46 46 46 45 42 41 40 39 37 37 37 38 37 37 36 35 34 33 32 31 30 29 29 28 28 28 28 27 26 26 27 27 27
51 51 52 51 51 50 49 49 48 48 48 47 48 48 46 44 43 42 40 39 39 39 39 39 38 37 36 35 34 33 33 32 31 30 30 30 30 30 29 29 29 29 29
50 51 52 51 51 50 49 49 49 48 48 48 49 49 48 45 44 43 44 43 41 41 40 40 40 39 38 38 37 36 35 34 33 33 32 32 32 31 31 31 31 31 31
Wind_Direction
232 230 229 226 226 226 225 224 225 224 224 225 228 229 231 232 232 229 224 220 218 218 219 222 219 213 206 199 184 167 146 119 109 106 102 100 98 89 80 70 63 61 60
236 233 231 229 228 229 227 226 226 226 227 227 229 231 234 236 236 234 229 228 228 227 228 228 223 220 217 211 205 191 170 143 122 111 108 103 99 95 82 69 59 54 52
238 236 232 232 230 229 228 228 227 228 228 229 231 233 234 236 237 237 234 234 234 234 234 233 228 226 223 215 211 207 194 180 166 146 131 111 96 100 88 68 51 42 39
238 237 234 233 232 231 230 229 228 229 229 232 235 236 236 237 238 238 237 236 234 233 233 233 231 229 225 221 218 217 211 209 217 219 209 187 119 107 92 59 34 29 29
239 239 237 234 232 231 231 231 229 230 231 232 235 237 238 239 239 239 236 236 233 230 230 230 231 231 229 227 227 227 225 226 233 237 229 226 224 240 262 312 356 5 4
238 239 239 236 234 232 232 232 231 231 232 232 234 236 238 240 241 240 236 234 233 231 230 230 232 234 234 234 235 235 234 232 234 238 237 236 245 255 260 271 294 317 331
238 239 239 238 237 235 233 232 232 232 232 233 234 236 238 239 240 238 236 235 234 233 232 234 235 236 237 237 238 237 235 236 239 244 241 241 248 251 256 269 280 292 309
238 238 239 239 238 237 234 233 233 232 233 234 236 237 237 239 240 239 236 234 234 234 236 237 238 238 239 239 239 238 238 240 242 246 244 246 252 256 260 268 278 285 296
238 238 239 239 238 237 236 234 234 233 233 234 235 237 238 239 240 240 238 237 236 237 238 239 238 238 238 239 239 238 240 242 243 243 244 251 257 262 263 266 275 283 290
238 238 238 238 238 237 237 236 235 234 234 234 235 236 238 239 240 241 240 239 238 239 240 240 240 238 238 237 237 238 241 243 245 246 248 252 260 264 265 268 273 278 284
237 238 238 237 238 237 237 237 236 235 235 235 235 236 237 238 238 240 240 240 240 240 240 241 240 238 238 238 238 239 243 246 249 250 249 253 259 263 265 268 271 276 280
237 237 238 238 238 238 237 237 236 236 236 235 235 236 237 238 238 239 240 240 240 241 241 241 239 237 238 240 240 243 246 249 251 251 251 254 258 262 265 268 271 276 279
237 237 237 237 238 238 238 237 237 236 236 236 235 236 236 237 238 238 239 239 240 241 241 241 241 238 238 240 242 245 248 252 251 252 254 254 256 258 261 265 271 274 278
237 237 236 236 237 238 238 237 237 236 236 235 234 235 236 236 237 237 237 238 239 240 241 242 242 240 239 241 242 245 248 250 252 253 254 254 255 256 259 264 268 272 275
237 237 236 236 237 237 237 237 236 236 236 235 234 234 235 236 236 236 236 238 239 240 241 242 242 241 240 241 244 246 247 248 251 252 253 254 255 258 261 264 268 272 274
236 236 235 235 236 236 236 236 236 235 234 234 235 234 234 235 235 235 236 237 238 239 239 239 241 240 240 241 243 244 246 248 251 252 253 254 256 259 262 265 269 272 275
235 235 234 234 234 234 235 235 235 234 233 233 234 234 234 234 235 236 236 237 236 236 236 238 240 240 241 241 241 243 244 247 250 252 252 254 257 259 263 267 270 273 276
233 233 233 233 232 233 234 234 234 234 233 232 233 234 234 233 233 235 235 235 235 235 235 237 239 240 241 241 241 243 245 247 248 249 251 254 257 259 262 266 270 274 278
232 233 233 232 231 232 234 234 234 234 233 232 232 233 234 234 233 233 234 234 234 234 235 236 238 240 241 242 243 243 245 246 247 249 251 254 257 259 261 264 268 274 278
231 232 232 232 231 232 233 233 234 234 232 232 231 231 232 233 233 233 233 233 234 234 234 235 238 239 241 242 244 245 246 248 249 249 252 254 257 260 262 264 268 273 277
232 231 231 232 232 231 232 233 234 234 234 232 231 230 233 233 234 234 233 233 233 234 234 235 237 239 241 243 244 246 247 248 249 250 252 255 258 260 263 265 269 273 276
231 231 231 231 231 232 231 232 233 234 233 230 229 230 232 233 234 234 235 234 234 234 234 235 238 239 241 243 245 246 248 248 249 251 253 255 258 260 263 266 269 271 275
231 231 231 231 231 232 231 232 232 233 233 231 230 231 232 233 233 233 235 236 235 235 235 236 238 239 241 242 244 246 247 249 250 252 254 257 259 261 264 266 269 271 274
231 231 231 231 231 232 232 231 232 232 233 233 232 232 232 233 234 234 235 236 236 236 236 237 238 239 241 243 245 247 248 250 251 253 255 258 260 262 264 266 268 271 274
230 230 230 229 230 231 231 231 231 231 232 233 233 233 232 234 235 236 236 237 238 238 238 238 239 241 242 244 245 248 249 250 252 254 257 259 261 263 264 266 268 271 273
229 229 229 229 229 230 230 230 231 231 232 233 233 233 233 233 235 236 236 237 238 238 239 239 240 241 243 244 246 248 250 251 253 254 256 258 260 263 265 267 269 271 273